W0PE-1 Weather Reports


time (UTC)temp
C
wind
direction
speed
KPH
gust
KPH
rain 1hr
cm
rain 24hr
cm
rain mn
cm
humidity
%
barometer
mb
20260507064547 16 245 0.0 0.0 0.00 0.00 0.00 74 1016.7
20260507063049 16 245 0.0 0.0 0.00 0.00 0.00 74 1016.8
20260507061544 16 245 0.0 0.0 0.00 0.00 0.00 73 1016.8
20260507060051 16 244 0.0 0.0 0.00 0.00 0.00 72 1016.7
20260507054549 16 245 0.0 0.0 0.00 0.00 0.00 72 1016.9
20260507053052 17 244 0.0 1.6 0.00 0.00 0.00 71 1016.8
20260507051543 17 245 0.0 1.6 0.00 0.00 0.00 71 1016.7
20260507050041 17 241 1.6 4.8 0.00 0.00 0.00 70 1016.6
20260507044554 17 250 3.2 4.8 0.00 0.00 0.00 69 1016.5
20260507043041 17 245 1.6 4.8 0.00 0.00 0.00 68 1016.5
20260507041540 18 259 1.6 4.8 0.00 0.00 0.00 67 1016.5
20260507040040 18 246 0.0 6.4 0.00 0.00 0.00 66 1016.4
20260507034543 18 241 0.0 4.8 0.00 0.00 0.00 66 1016.2
20260507033039 18 176 0.0 4.8 0.00 0.00 0.00 66 1016.1
20260507031538 18 181 0.0 4.8 0.00 0.00 0.00 65 1015.8
20260507030038 19 167 3.2 8.0 0.00 0.00 0.00 64 1015.7
20260507024541 19 166 1.6 11.3 0.00 0.00 0.00 63 1015.5
20260507023036 20 169 1.6 6.4 0.00 0.00 0.00 62 1015.4
20260507021536 20 215 0.0 6.4 0.00 0.00 0.00 61 1015.3
20260507020044 21 221 1.6 9.7 0.00 0.00 0.00 60 1015.2
20260507014536 21 178 4.8 11.3 0.00 0.00 0.00 59 1015.1
20260507013034 21 165 4.8 11.3 0.00 0.00 0.00 58 1014.9
20260507011533 22 199 1.6 11.3 0.00 0.00 0.00 57 1014.9
20260507010034 22 234 3.2 12.9 0.00 0.00 0.00 56 1014.7
20260507004534 22 212 3.2 12.9 0.00 0.00 0.00 55 1014.7
20260507003033 22 210 3.2 14.5 0.00 0.00 0.00 54 1014.7
20260507001537 22 240 4.8 11.3 0.00 0.00 0.00 54 1014.6
20260507000030 22 284 3.2 11.3 0.00 0.00 0.00 54 1014.6
20260506234529 22 231 4.8 12.9 0.00 0.00 0.00 55 1014.6
20260506233028 23 214 3.2 17.7 0.00 0.00 0.00 52 1014.6
20260506231528 23 161 3.2 14.5 0.00 0.00 0.00 51 1014.7
20260506230025 23 169 6.4 14.5 0.00 0.00 0.00 49 1014.8
20260506224525 24 186 4.8 16.1 0.00 0.00 0.00 50 1014.9
20260506223023 24 213 3.2 16.1 0.00 0.00 0.00 51 1015.0
20260506221522 23 166 3.2 9.7 0.00 0.00 0.00 51 1015.0
20260506220020 23 182 4.8 14.5 0.00 0.00 0.00 51 1015.3
20260506214518 23 163 6.4 12.9 0.00 0.00 0.00 51 1015.4
20260506213017 23 148 4.8 8.0 0.00 0.00 0.00 52 1015.6
20260506211515 23 178 1.6 12.9 0.00 0.00 0.00 52 1015.8
20260506210019 23 246 3.2 14.5 0.00 0.00 0.00 53 1016.0
20260506204514 23 232 6.4 14.5 0.00 0.00 0.00 52 1016.1
20260506203010 23 173 3.2 9.7 0.00 0.00 0.00 50 1016.2
20260506201508 23 250 4.8 11.3 0.00 0.00 0.00 49 1016.3
20260506200005 23 180 3.2 12.9 0.00 0.00 0.00 50 1016.6
20260506194504 22 246 3.2 9.7 0.00 0.00 0.00 51 1016.9
20260506193003 23 280 3.2 14.5 0.00 0.00 0.00 51 1016.9
20260506191502 21 205 3.2 9.7 0.00 0.00 0.00 52 1017.2
20260506190059 22 262 3.2 11.3 0.00 0.00 0.00 53 1017.4
20260506184558 21 213 1.6 9.7 0.00 0.00 0.00 54 1017.5
20260506183105 21 246 4.8 9.7 0.00 0.00 0.00 53 1017.7
20260506181553 20 207 1.6 11.3 0.00 0.00 0.00 57 1017.7
20260506180052 21 173 1.6 9.7 0.00 0.00 0.00 56 1017.8
20260506174548 20 158 1.6 11.3 0.00 0.00 0.00 58 1017.8
20260506173049 20 168 3.2 8.0 0.00 0.00 0.00 57 1017.8
20260506171555 20 155 3.2 8.0 0.00 0.00 0.00 59 1017.9
20260506170046 19 153 1.6 8.0 0.00 0.00 0.00 62 1017.8
20260506164542 19 205 4.8 12.9 0.00 0.00 0.00 63 1017.9
20260506163042 18 229 1.6 9.7 0.00 0.00 0.00 68 1017.9
20260506161534 17 115 0.0 6.4 0.00 0.00 0.00 74 1017.9
20260506160032 16 209 1.6 6.4 0.00 0.00 0.00 79 1018.0
20260506154527 15 224 0.0 4.8 0.00 0.00 0.00 83 1017.9
20260506153024 15 164 0.0 4.8 0.00 0.00 0.00 86 1018.1
20260506151530 15 125 0.0 4.8 0.00 0.00 0.00 89 1018.1
20260506150018 13 59 0.0 4.8 0.00 0.00 0.00 90 1018.0
20260506144514 13 131 0.0 3.2 0.00 0.03 0.00 90 1018.1
20260506143015 12 109 0.0 3.2 0.00 0.03 0.00 90 1018.0
20260506141512 12 109 1.6 4.8 0.00 0.03 0.00 90 1017.9
20260506140015 11 137 0.0 0.0 0.00 0.03 0.00 90 1017.9
20260506134510 10 140 0.0 0.0 0.00 0.03 0.00 90 1017.8
20260506133009 10 140 0.0 0.0 0.00 0.03 0.00 89 1017.6
20260506131512 10 140 0.0 0.0 0.00 0.03 0.00 89 1017.4
20260506130006 10 140 0.0 0.0 0.00 0.03 0.00 89 1017.3
20260506124503 10 140 0.0 0.0 0.00 0.03 0.00 89 1017.2
20260506123004 11 140 0.0 0.0 0.00 0.03 0.00 88 1017.1
20260506121500 11 140 0.0 0.0 0.00 0.03 0.00 88 1016.9
20260506120100 11 140 0.0 0.0 0.00 0.03 0.00 88 1017.0
20260506114604 11 140 0.0 0.0 0.00 0.05 0.00 88 1016.9
20260506113102 11 140 0.0 0.0 0.00 0.05 0.00 88 1016.8
20260506111605 11 140 0.0 0.0 0.00 0.05 0.00 88 1016.7
20260506110055 11 140 0.0 0.0 0.00 0.05 0.00 87 1016.7
20260506104558 11 140 0.0 0.0 0.00 0.10 0.00 87 1016.9
20260506103059 12 140 0.0 0.0 0.00 0.10 0.00 87 1016.8
20260506101553 12 140 0.0 0.0 0.00 0.10 0.00 87 1016.8
20260506100054 12 140 0.0 0.0 0.00 0.10 0.00 87 1016.8
20260506094550 12 140 0.0 0.0 0.00 0.13 0.00 86 1016.8
20260506093048 12 140 0.0 0.0 0.00 0.13 0.00 86 1016.9
20260506091551 11 140 0.0 0.0 0.00 0.13 0.00 86 1016.9
20260506090046 12 140 0.0 0.0 0.00 0.13 0.00 85 1017.1
20260506084545 12 140 0.0 0.0 0.00 0.13 0.00 85 1017.1
20260506083042 12 140 0.0 0.0 0.00 0.13 0.00 84 1017.3
20260506081540 12 140 0.0 0.0 0.00 0.13 0.00 84 1017.3
20260506073037 12 140 0.0 0.0 0.00 0.13 0.00 82 1017.2
20260506071534 13 140 0.0 0.0 0.00 0.13 0.00 81 1017.2